Time,TemperatureF,DewpointF,PressureIn,WindDirection,WindDirectionDegrees,WindSpeedMPH,WindSpeedGustMPH,Humidity,HourlyPrecipIn,Conditions,Clouds,dailyrainin,SoftwareType,DateUTC
2013-09-11 00:02:00,75.7,68.4,29.24,SE,124,0.0,2.7,78,0.00,,,0.00,LWC V2.10 B1813,2013-09-11 05:02:00,
2013-09-11 00:07:00,75.6,68.2,29.24,ESE,112,0.0,0.0,78,0.00,,,0.00,LWC V2.10 B1813,2013-09-11 05:07:00,
2013-09-11 00:12:00,75.6,68.6,29.24,ESE,119,0.0,2.7,79,0.00,,,0.00,LWC V2.10 B1813,2013-09-11 05:12:00,
2013-09-11 00:17:00,75.4,68.4,29.24,ESE,122,0.0,3.1,79,0.00,,,0.00,LWC V2.10 B1813,2013-09-11 05:17:00,
2013-09-11 00:22:00,75.4,68.4,29.24,East,101,0.0,0.0,79,0.00,,,0.00,LWC V2.10 B1813,2013-09-11 05:22:00,
2013-09-11 00:27:00,75.4,68.4,29.24,East,85,2.7,2.7,79,0.00,,,0.00,LWC V2.10 B1813,2013-09-11 05:27:00,
2013-09-11 00:32:00,75.4,68.4,29.24,ESE,103,3.6,3.6,79,0.00,,,0.00,LWC V2.10 B1813,2013-09-11 05:32:00,
2013-09-11 00:37:00,75.4,68.4,29.24,ESE,115,2.7,4.0,79,0.00,,,0.00,LWC V2.10 B1813,2013-09-11 05:37:00,
2013-09-11 00:42:00,75.4,68.8,29.24,East,94,0.0,3.1,80,0.00,,,0.00,LWC V2.10 B1813,2013-09-11 05:42:00,
2013-09-11 00:47:00,75.4,68.8,29.24,East,100,0.0,3.1,80,0.00,,,0.00,LWC V2.10 B1813,2013-09-11 05:47:00,
2013-09-11 00:52:00,75.4,68.8,29.24,East,89,0.0,2.7,80,0.00,,,0.00,LWC V2.10 B1813,2013-09-11 05:52:00,
2013-09-11 00:57:00,75.4,68.8,29.24,East,97,3.1,3.6,80,0.00,,,0.00,LWC V2.10 B1813,2013-09-11 05:57:00,
2013-09-11 01:02:00,75.4,68.8,29.24,East,92,0.0,0.0,80,0.00,,,0.00,LWC V2.10 B1813,2013-09-11 06:02:00,
2013-09-11 01:07:00,75.2,69.0,29.24,ENE,77,0.0,4.9,81,0.00,,,0.00,LWC V2.10 B1813,2013-09-11 06:07:00,
2013-09-11 01:12:00,75.2,69.0,29.24,East,93,0.0,3.6,81,0.00,,,0.00,LWC V2.10 B1813,2013-09-11 06:12:00,
2013-09-11 01:17:00,75.4,69.1,29.24,East,82,3.6,4.0,81,0.00,,,0.00,LWC V2.10 B1813,2013-09-11 06:17:00,
2013-09-11 01:22:00,75.6,68.9,29.24,East,80,3.1,4.0,80,0.00,,,0.00,LWC V2.10 B1813,2013-09-11 06:22:00,
2013-09-11 01:27:00,75.7,69.1,29.24,ESE,113,0.0,4.0,80,0.00,,,0.00,LWC V2.10 B1813,2013-09-11 06:27:00,
2013-09-11 01:32:00,75.7,69.1,29.24,East,92,2.2,3.6,80,0.00,,,0.00,LWC V2.10 B1813,2013-09-11 06:32:00,
2013-09-11 01:37:00,75.7,69.1,29.24,East,87,2.7,2.7,80,0.00,,,0.00,LWC V2.10 B1813,2013-09-11 06:37:00,
2013-09-11 01:42:00,75.6,69.3,29.24,ENE,76,2.7,3.6,81,0.00,,,0.00,LWC V2.10 B1813,2013-09-11 06:42:00,
2013-09-11 01:47:00,75.6,69.3,29.24,East,86,0.0,2.7,81,0.00,,,0.00,LWC V2.10 B1813,2013-09-11 06:47:00,
2013-09-11 01:52:00,75.6,69.3,29.24,East,100,4.0,4.0,81,0.00,,,0.00,LWC V2.10 B1813,2013-09-11 06:52:00,
2013-09-11 01:57:00,75.6,69.3,29.24,ESE,103,0.0,4.9,81,0.00,,,0.00,LWC V2.10 B1813,2013-09-11 06:57:00,
2013-09-11 02:02:00,75.6,69.3,29.24,East,100,4.0,4.0,81,0.00,,,0.00,LWC V2.10 B1813,2013-09-11 07:02:00,
2013-09-11 02:07:00,75.6,69.3,29.24,East,92,2.7,4.0,81,0.00,,,0.00,LWC V2.10 B1813,2013-09-11 07:07:00,
2013-09-11 02:12:00,75.7,69.8,29.24,ESE,118,3.1,3.6,82,0.00,,,0.00,LWC V2.10 B1813,2013-09-11 07:12:00,
2013-09-11 02:17:00,75.7,69.8,29.24,ESE,108,2.2,4.0,82,0.00,,,0.00,LWC V2.10 B1813,2013-09-11 07:17:00,
2013-09-11 02:22:00,75.6,69.7,29.24,East,97,3.6,3.6,82,0.00,,,0.00,LWC V2.10 B1813,2013-09-11 07:22:00,
2013-09-11 02:27:00,75.6,69.7,29.24,East,96,0.0,2.2,82,0.00,,,0.00,LWC V2.10 B1813,2013-09-11 07:27:00,
2013-09-11 02:32:00,75.6,69.7,29.24,East,99,2.7,4.9,82,0.00,,,0.00,LWC V2.10 B1813,2013-09-11 07:32:00,
2013-09-11 02:37:00,75.4,69.5,29.24,East,94,2.7,3.1,82,0.00,,,0.00,LWC V2.10 B1813,2013-09-11 07:37:00,
2013-09-11 02:42:00,75.4,69.8,29.24,East,95,3.6,4.0,83,0.00,,,0.00,LWC V2.10 B1813,2013-09-11 07:42:00,
2013-09-11 02:47:00,75.4,69.8,29.24,ENE,72,3.6,5.4,83,0.00,,,0.00,LWC V2.10 B1813,2013-09-11 07:47:00,
2013-09-11 02:52:00,75.4,69.8,29.24,ENE,76,0.0,4.0,83,0.00,,,0.00,LWC V2.10 B1813,2013-09-11 07:52:00,
2013-09-11 02:57:00,75.4,69.8,29.24,East,96,3.1,3.1,83,0.00,,,0.00,LWC V2.10 B1813,2013-09-11 07:57:00,
2013-09-11 03:02:00,75.4,69.8,29.24,East,84,0.0,2.7,83,0.00,,,0.00,LWC V2.10 B1813,2013-09-11 08:02:00,
2013-09-11 03:07:00,75.2,70.0,29.24,ENE,77,2.7,2.7,84,0.00,,,0.00,LWC V2.10 B1813,2013-09-11 08:07:00,
2013-09-11 03:12:00,75.2,70.0,29.24,ENE,59,3.6,3.6,84,0.00,,,0.00,LWC V2.10 B1813,2013-09-11 08:12:00,
2013-09-11 03:17:00,75.2,70.0,29.24,ENE,75,3.6,3.6,84,0.00,,,0.00,LWC V2.10 B1813,2013-09-11 08:17:00,
2013-09-11 03:22:00,75.2,70.0,29.24,East,82,0.0,4.0,84,0.00,,,0.00,LWC V2.10 B1813,2013-09-11 08:22:00,
2013-09-11 03:27:00,75.2,70.0,29.24,East,79,2.2,4.0,84,0.00,,,0.00,LWC V2.10 B1813,2013-09-11 08:27:00,
2013-09-11 03:32:00,75.2,70.4,29.24,ENE,76,3.1,4.0,85,0.00,,,0.00,LWC V2.10 B1813,2013-09-11 08:32:00,
2013-09-11 03:37:00,75.0,70.2,29.24,East,91,2.7,2.7,85,0.00,,,0.00,LWC V2.10 B1813,2013-09-11 08:37:00,
2013-09-11 03:42:00,75.0,70.2,29.24,East,96,0.0,3.1,85,0.00,,,0.00,LWC V2.10 B1813,2013-09-11 08:42:00,
2013-09-11 03:47:00,74.8,70.0,29.24,East,98,0.0,2.2,85,0.00,,,0.00,LWC V2.10 B1813,2013-09-11 08:47:00,
2013-09-11 03:52:00,74.8,70.4,29.24,East,96,4.0,4.0,86,0.00,,,0.00,LWC V2.10 B1813,2013-09-11 08:52:00,
2013-09-11 03:57:00,74.8,70.4,29.24,East,87,0.0,0.0,86,0.00,,,0.00,LWC V2.10 B1813,2013-09-11 08:57:00,
2013-09-11 04:02:00,74.7,70.2,29.24,ENE,72,0.0,0.0,86,0.00,,,0.00,LWC V2.10 B1813,2013-09-11 09:02:00,
2013-09-11 04:07:00,74.5,70.0,29.24,East,79,0.0,2.2,86,0.00,,,0.00,LWC V2.10 B1813,2013-09-11 09:07:00,
2013-09-11 04:12:00,74.5,70.0,29.24,ENE,75,0.0,2.7,86,0.00,,,0.00,LWC V2.10 B1813,2013-09-11 09:12:00,
2013-09-11 04:17:00,74.3,69.8,29.24,East,101,2.2,3.6,86,0.00,,,0.00,LWC V2.10 B1813,2013-09-11 09:17:00,
2013-09-11 04:22:00,74.3,69.8,29.24,ENE,65,4.0,4.0,86,0.00,,,0.00,LWC V2.10 B1813,2013-09-11 09:22:00,
2013-09-11 04:27:00,74.3,70.2,29.24,East,79,0.0,2.7,87,0.00,,,0.00,LWC V2.10 B1813,2013-09-11 09:27:00,
2013-09-11 04:32:00,74.3,70.2,29.24,East,80,0.0,3.1,87,0.00,,,0.00,LWC V2.10 B1813,2013-09-11 09:32:00,
2013-09-11 04:37:00,74.3,70.2,29.24,ENE,71,2.2,3.1,87,0.00,,,0.00,LWC V2.10 B1813,2013-09-11 09:37:00,
2013-09-11 04:42:00,74.3,70.2,29.24,East,94,2.7,3.1,87,0.00,,,0.00,LWC V2.10 B1813,2013-09-11 09:42:00,
2013-09-11 04:47:00,74.3,70.2,29.24,East,101,2.7,3.6,87,0.00,,,0.00,LWC V2.10 B1813,2013-09-11 09:47:00,
2013-09-11 04:52:00,74.3,70.2,29.20,East,82,2.7,4.0,87,0.00,,,0.00,LWC V2.10 B1813,2013-09-11 09:52:00,
2013-09-11 04:57:00,74.3,70.2,29.20,East,86,2.7,3.1,87,0.00,,,0.00,LWC V2.10 B1813,2013-09-11 09:57:00,
2013-09-11 05:02:00,74.3,70.2,29.20,ENE,72,3.1,4.0,87,0.00,,,0.00,LWC V2.10 B1813,2013-09-11 10:02:00,
2013-09-11 05:07:00,74.5,70.7,29.20,ENE,63,2.7,2.7,88,0.00,,,0.00,LWC V2.10 B1813,2013-09-11 10:07:00,
2013-09-11 05:12:00,74.5,70.7,29.20,NE,54,3.1,4.0,88,0.00,,,0.00,LWC V2.10 B1813,2013-09-11 10:12:00,
2013-09-11 05:17:00,74.5,70.7,29.20,East,88,2.2,4.9,88,0.00,,,0.00,LWC V2.10 B1813,2013-09-11 10:17:00,
2013-09-11 05:22:00,74.5,70.7,29.20,East,95,2.7,3.6,88,0.00,,,0.00,LWC V2.10 B1813,2013-09-11 10:22:00,
2013-09-11 05:27:00,74.3,70.5,29.20,East,83,2.2,5.8,88,0.00,,,0.00,LWC V2.10 B1813,2013-09-11 10:27:00,
2013-09-11 05:32:00,74.3,70.5,29.20,ENE,73,2.2,5.4,88,0.00,,,0.00,LWC V2.10 B1813,2013-09-11 10:32:00,
2013-09-11 05:37:00,74.1,70.3,29.20,East,98,3.1,3.1,88,0.00,,,0.00,LWC V2.10 B1813,2013-09-11 10:37:00,
2013-09-11 05:42:00,74.1,70.3,29.20,East,93,4.0,4.0,88,0.00,,,0.00,LWC V2.10 B1813,2013-09-11 10:42:00,
2013-09-11 05:47:00,74.1,70.3,29.20,East,87,2.2,4.0,88,0.00,,,0.00,LWC V2.10 B1813,2013-09-11 10:47:00,
2013-09-11 05:52:00,74.1,70.3,29.24,SE,126,2.7,3.6,88,0.00,,,0.00,LWC V2.10 B1813,2013-09-11 10:52:00,
2013-09-11 05:57:00,74.1,70.3,29.24,East,89,0.0,3.6,88,0.00,,,0.00,LWC V2.10 B1813,2013-09-11 10:57:00,
2013-09-11 06:02:00,73.9,70.2,29.24,East,88,2.7,3.6,88,0.00,,,0.00,LWC V2.10 B1813,2013-09-11 11:02:00,
2013-09-11 06:07:00,73.9,70.2,29.24,NE,54,3.1,4.0,88,0.00,,,0.00,LWC V2.10 B1813,2013-09-11 11:07:00,
2013-09-11 06:12:00,73.9,70.2,29.24,East,83,3.1,4.9,88,0.00,,,0.00,LWC V2.10 B1813,2013-09-11 11:12:00,
2013-09-11 06:17:00,73.9,70.2,29.24,ENE,58,3.1,3.1,88,0.00,,,0.00,LWC V2.10 B1813,2013-09-11 11:17:00,
2013-09-11 06:22:00,73.8,70.0,29.24,East,82,3.1,5.8,88,0.00,,,0.00,LWC V2.10 B1813,2013-09-11 11:22:00,
2013-09-11 06:27:00,73.8,70.0,29.24,ESE,110,4.9,4.9,88,0.00,,,0.00,LWC V2.10 B1813,2013-09-11 11:27:00,
2013-09-11 06:32:00,73.8,70.0,29.24,East,97,0.0,5.4,88,0.00,,,0.00,LWC V2.10 B1813,2013-09-11 11:32:00,
2013-09-11 06:37:00,73.9,70.2,29.24,ENE,62,3.6,4.9,88,0.00,,,0.00,LWC V2.10 B1813,2013-09-11 11:37:00,
2013-09-11 06:42:00,73.9,70.2,29.24,NE,56,4.9,7.2,88,0.00,,,0.00,LWC V2.10 B1813,2013-09-11 11:42:00,
2013-09-11 06:47:00,73.9,70.2,29.24,East,93,3.1,3.1,88,0.00,,,0.00,LWC V2.10 B1813,2013-09-11 11:47:00,
2013-09-11 06:52:00,73.9,70.5,29.24,East,85,2.2,6.3,89,0.00,,,0.00,LWC V2.10 B1813,2013-09-11 11:52:00,
2013-09-11 06:57:00,73.8,70.3,29.24,East,86,3.1,7.6,89,0.00,,,0.00,LWC V2.10 B1813,2013-09-11 11:57:00,
2013-09-11 07:02:00,73.8,70.3,29.24,East,87,4.5,4.9,89,0.00,,,0.00,LWC V2.10 B1813,2013-09-11 12:02:00,
2013-09-11 07:07:00,73.8,70.3,29.24,East,92,0.0,6.3,89,0.00,,,0.00,LWC V2.10 B1813,2013-09-11 12:07:00,
2013-09-11 07:12:00,73.6,70.1,29.24,East,79,2.7,5.8,89,0.00,,,0.00,LWC V2.10 B1813,2013-09-11 12:12:00,
2013-09-11 07:17:00,73.6,70.1,29.24,ENE,62,5.8,5.8,89,0.00,,,0.00,LWC V2.10 B1813,2013-09-11 12:17:00,
2013-09-11 07:22:00,73.4,70.0,29.24,ENE,68,6.3,6.3,89,0.00,,,0.00,LWC V2.10 B1813,2013-09-11 12:22:00,
2013-09-11 07:27:00,73.4,70.0,29.24,East,93,2.7,6.3,89,0.00,,,0.00,LWC V2.10 B1813,2013-09-11 12:27:00,
2013-09-11 07:32:00,73.4,70.0,29.24,East,92,3.1,5.8,89,0.00,,,0.00,LWC V2.10 B1813,2013-09-11 12:32:00,
2013-09-11 07:37:00,73.4,70.0,29.24,ESE,110,2.2,5.8,89,0.00,,,0.00,LWC V2.10 B1813,2013-09-11 12:37:00,
2013-09-11 07:42:00,73.4,70.0,29.24,ENE,67,3.6,6.3,89,0.00,,,0.00,LWC V2.10 B1813,2013-09-11 12:42:00,
2013-09-11 07:47:00,73.4,70.0,29.24,ENE,77,4.9,5.4,89,0.00,,,0.00,LWC V2.10 B1813,2013-09-11 12:47:00,
2013-09-11 07:52:00,73.6,70.1,29.24,East,98,3.1,5.8,89,0.00,,,0.00,LWC V2.10 B1813,2013-09-11 12:52:00,
2013-09-11 07:57:00,73.6,70.1,29.24,East,85,3.1,5.4,89,0.00,,,0.00,LWC V2.10 B1813,2013-09-11 12:57:00,
2013-09-11 08:02:00,73.6,70.1,29.24,NE,50,4.9,4.9,89,0.00,,,0.00,LWC V2.10 B1813,2013-09-11 13:02:00,
2013-09-11 08:07:00,73.8,70.6,29.24,East,86,2.2,3.6,90,0.00,,,0.00,LWC V2.10 B1813,2013-09-11 13:07:00,
2013-09-11 08:12:00,73.9,70.8,29.24,East,91,2.7,4.9,90,0.00,,,0.00,LWC V2.10 B1813,2013-09-11 13:12:00,
2013-09-11 08:17:00,74.1,71.0,29.24,East,79,6.3,6.3,90,0.00,,,0.00,LWC V2.10 B1813,2013-09-11 13:17:00,
2013-09-11 08:22:00,74.3,70.8,29.24,East,101,4.9,6.3,89,0.00,,,0.00,LWC V2.10 B1813,2013-09-11 13:22:00,
2013-09-11 08:27:00,74.5,71.0,29.24,ENE,78,2.2,5.4,89,0.00,,,0.00,LWC V2.10 B1813,2013-09-11 13:27:00,
2013-09-11 08:32:00,74.8,71.4,29.24,East,82,6.3,6.3,89,0.00,,,0.00,LWC V2.10 B1813,2013-09-11 13:32:00,
2013-09-11 08:37:00,75.4,71.9,29.26,ENE,72,3.1,7.6,89,0.00,,,0.00,LWC V2.10 B1813,2013-09-11 13:37:00,
2013-09-11 08:42:00,75.9,72.4,29.26,ENE,76,3.6,6.7,89,0.00,,,0.00,LWC V2.10 B1813,2013-09-11 13:42:00,
2013-09-11 08:47:00,76.5,72.6,29.26,SE,140,6.3,8.7,88,0.00,,,0.00,LWC V2.10 B1813,2013-09-11 13:47:00,
2013-09-11 08:52:00,76.8,73.0,29.26,ESE,113,3.1,5.8,88,0.00,,,0.00,LWC V2.10 B1813,2013-09-11 13:52:00,
2013-09-11 08:57:00,77.0,72.8,29.26,East,101,2.2,3.1,87,0.00,,,0.00,LWC V2.10 B1813,2013-09-11 13:57:00,
2013-09-11 09:02:00,77.0,72.8,29.26,East,86,3.1,6.3,87,0.00,,,0.00,LWC V2.10 B1813,2013-09-11 14:02:00,
2013-09-11 09:07:00,77.0,72.8,29.26,East,89,2.2,6.3,87,0.00,,,0.00,LWC V2.10 B1813,2013-09-11 14:07:00,
2013-09-11 09:12:00,77.2,72.7,29.26,East,95,2.7,5.4,86,0.00,,,0.00,LWC V2.10 B1813,2013-09-11 14:12:00,
2013-09-11 09:17:00,77.5,73.0,29.26,ENE,76,3.6,6.3,86,0.00,,,0.00,LWC V2.10 B1813,2013-09-11 14:17:00,
2013-09-11 09:22:00,78.1,73.5,29.26,ENE,63,3.1,4.0,86,0.00,,,0.00,LWC V2.10 B1813,2013-09-11 14:22:00,
2013-09-11 09:27:00,79.2,73.9,29.26,East,83,2.7,6.7,84,0.00,,,0.00,LWC V2.10 B1813,2013-09-11 14:27:00,
2013-09-11 09:32:00,79.5,73.9,29.26,East,97,0.0,4.0,83,0.00,,,0.00,LWC V2.10 B1813,2013-09-11 14:32:00,
2013-09-11 09:37:00,79.7,73.7,29.26,ESE,113,2.2,4.9,82,0.00,,,0.00,LWC V2.10 B1813,2013-09-11 14:37:00,
2013-09-11 09:42:00,79.2,72.8,29.26,ESE,110,3.6,5.4,81,0.00,,,0.00,LWC V2.10 B1813,2013-09-11 14:42:00,
2013-09-11 09:47:00,79.5,72.8,29.26,ESE,109,6.7,6.7,80,0.00,,,0.00,LWC V2.10 B1813,2013-09-11 14:47:00,
2013-09-11 09:52:00,79.7,72.6,29.26,East,82,3.1,6.3,79,0.00,,,0.00,LWC V2.10 B1813,2013-09-11 14:52:00,
2013-09-11 09:57:00,79.7,72.6,29.26,East,98,2.7,6.3,79,0.00,,,0.00,LWC V2.10 B1813,2013-09-11 14:57:00,
2013-09-11 10:02:00,80.6,73.1,29.29,East,90,2.7,6.3,78,0.00,,,0.00,LWC V2.10 B1813,2013-09-11 15:02:00,
2013-09-11 10:07:00,81.7,73.7,29.29,East,84,3.6,3.6,77,0.00,,,0.00,LWC V2.10 B1813,2013-09-11 15:07:00,
2013-09-11 10:12:00,81.7,73.4,29.29,NE,44,2.7,6.3,76,0.00,,,0.00,LWC V2.10 B1813,2013-09-11 15:12:00,
2013-09-11 10:17:00,82.0,73.7,29.29,East,95,3.6,5.4,76,0.00,,,0.00,LWC V2.10 B1813,2013-09-11 15:17:00,
2013-09-11 10:22:00,82.2,73.5,29.29,East,95,8.3,8.3,75,0.00,,,0.00,LWC V2.10 B1813,2013-09-11 15:22:00,
2013-09-11 10:27:00,82.6,73.8,29.29,East,86,3.1,5.8,75,0.00,,,0.00,LWC V2.10 B1813,2013-09-11 15:27:00,
2013-09-11 10:32:00,82.6,73.4,29.29,ESE,110,3.1,5.8,74,0.00,,,0.00,LWC V2.10 B1813,2013-09-11 15:32:00,
2013-09-11 10:37:00,82.2,72.7,29.29,East,81,5.4,7.2,73,0.00,,,0.00,LWC V2.10 B1813,2013-09-11 15:37:00,
2013-09-11 10:42:00,82.9,72.1,29.29,ESE,108,4.5,6.7,70,0.00,,,0.00,LWC V2.10 B1813,2013-09-11 15:42:00,
2013-09-11 10:47:00,82.8,71.5,29.29,East,90,2.7,8.1,69,0.00,,,0.00,LWC V2.10 B1813,2013-09-11 15:47:00,
2013-09-11 10:52:00,82.6,70.9,29.29,ENE,74,4.0,7.6,68,0.00,,,0.00,LWC V2.10 B1813,2013-09-11 15:52:00,
2013-09-11 10:57:00,82.9,70.4,29.29,SSE,163,3.6,8.1,66,0.00,,,0.00,LWC V2.10 B1813,2013-09-11 15:57:00,
2013-09-11 11:02:00,82.8,70.7,29.29,East,92,3.1,5.8,67,0.00,,,0.00,LWC V2.10 B1813,2013-09-11 16:02:00,
2013-09-11 11:07:00,83.8,71.2,29.26,East,90,4.0,5.8,66,0.00,,,0.00,LWC V2.10 B1813,2013-09-11 16:07:00,
2013-09-11 11:12:00,84.4,70.8,29.26,ENE,71,3.6,8.7,64,0.00,,,0.00,LWC V2.10 B1813,2013-09-11 16:12:00,
2013-09-11 11:17:00,84.6,71.0,29.26,ENE,74,4.9,7.6,64,0.00,,,0.00,LWC V2.10 B1813,2013-09-11 16:17:00,
2013-09-11 11:22:00,85.3,70.8,29.29,ESE,106,3.6,5.4,62,0.00,,,0.00,LWC V2.10 B1813,2013-09-11 16:22:00,
2013-09-11 11:27:00,85.6,70.1,29.29,NE,46,3.6,6.3,60,0.00,,,0.00,LWC V2.10 B1813,2013-09-11 16:27:00,
2013-09-11 11:32:00,84.9,69.0,29.29,East,81,3.6,6.3,59,0.00,,,0.00,LWC V2.10 B1813,2013-09-11 16:32:00,
2013-09-11 11:37:00,85.5,69.5,29.29,NE,53,3.6,4.9,59,0.00,,,0.00,LWC V2.10 B1813,2013-09-11 16:37:00,
2013-09-11 11:42:00,85.5,69.0,29.29,East,88,4.0,4.0,58,0.00,,,0.00,LWC V2.10 B1813,2013-09-11 16:42:00,
2013-09-11 11:47:00,85.1,68.1,29.29,East,89,2.7,4.9,57,0.00,,,0.00,LWC V2.10 B1813,2013-09-11 16:47:00,
2013-09-11 11:52:00,84.6,67.6,29.29,East,85,3.1,7.6,57,0.00,,,0.00,LWC V2.10 B1813,2013-09-11 16:52:00,
2013-09-11 11:57:00,85.3,68.3,29.29,East,94,3.6,7.6,57,0.00,,,0.00,LWC V2.10 B1813,2013-09-11 16:57:00,
2013-09-11 12:02:00,86.9,68.8,29.29,SE,141,4.0,7.6,55,0.00,,,0.00,LWC V2.10 B1813,2013-09-11 17:02:00,
2013-09-11 12:07:00,86.5,67.9,29.29,SE,130,4.9,5.8,54,0.00,,,0.00,LWC V2.10 B1813,2013-09-11 17:07:00,
2013-09-11 12:12:00,87.4,68.2,29.29,South,180,4.0,7.2,53,0.00,,,0.00,LWC V2.10 B1813,2013-09-11 17:12:00,
2013-09-11 12:17:00,87.1,67.8,29.29,ENE,65,4.0,7.6,53,0.00,,,0.00,LWC V2.10 B1813,2013-09-11 17:17:00,
2013-09-11 12:22:00,87.8,66.8,29.29,ENE,62,3.1,8.1,50,0.00,,,0.00,LWC V2.10 B1813,2013-09-11 17:22:00,
2013-09-11 12:27:00,88.0,67.5,29.29,East,88,2.2,4.0,51,0.00,,,0.00,LWC V2.10 B1813,2013-09-11 17:27:00,
2013-09-11 12:32:00,87.8,65.6,29.26,East,87,0.0,8.3,48,0.00,,,0.00,LWC V2.10 B1813,2013-09-11 17:32:00,
2013-09-11 12:37:00,88.5,65.7,29.26,ESE,113,4.0,8.7,47,0.00,,,0.00,LWC V2.10 B1813,2013-09-11 17:37:00,
2013-09-11 12:42:00,88.3,64.9,29.26,East,87,5.4,8.3,46,0.00,,,0.00,LWC V2.10 B1813,2013-09-11 17:42:00,
2013-09-11 12:47:00,88.7,65.8,29.26,East,97,2.7,8.3,47,0.00,,,0.00,LWC V2.10 B1813,2013-09-11 17:47:00,
2013-09-11 12:52:00,89.2,65.7,29.26,NNE,28,0.0,3.6,46,0.00,,,0.00,LWC V2.10 B1813,2013-09-11 17:52:00,
2013-09-11 12:57:00,89.4,65.2,29.26,ENE,70,5.8,10.1,45,0.00,,,0.00,LWC V2.10 B1813,2013-09-11 17:57:00,
2013-09-11 13:02:00,89.2,65.1,29.26,ESE,115,3.6,5.4,45,0.00,,,0.00,LWC V2.10 B1813,2013-09-11 18:02:00,
2013-09-11 13:07:00,89.6,65.4,29.26,NE,41,3.6,3.6,45,0.00,,,0.00,LWC V2.10 B1813,2013-09-11 18:07:00,
2013-09-11 13:12:00,90.0,65.7,29.26,ESE,111,2.7,6.3,45,0.00,,,0.00,LWC V2.10 B1813,2013-09-11 18:12:00,
2013-09-11 13:17:00,90.5,65.6,29.26,ESE,111,4.9,6.3,44,0.00,,,0.00,LWC V2.10 B1813,2013-09-11 18:17:00,
2013-09-11 13:22:00,90.3,65.4,29.26,East,98,3.6,6.3,44,0.00,,,0.00,LWC V2.10 B1813,2013-09-11 18:22:00,
2013-09-11 13:27:00,90.7,65.7,29.26,SE,142,3.6,4.9,44,0.00,,,0.00,LWC V2.10 B1813,2013-09-11 18:27:00,
2013-09-11 13:32:00,90.7,65.1,29.26,ENE,77,4.0,7.2,43,0.00,,,0.00,LWC V2.10 B1813,2013-09-11 18:32:00,
2013-09-11 13:37:00,91.0,64.7,29.26,ESE,121,10.1,10.1,42,0.00,,,0.00,LWC V2.10 B1813,2013-09-11 18:37:00,
2013-09-11 13:42:00,90.7,63.7,29.26,SE,144,5.8,7.6,41,0.00,,,0.00,LWC V2.10 B1813,2013-09-11 18:42:00,
2013-09-11 13:47:00,91.0,64.7,29.24,SE,139,6.3,6.3,42,0.00,,,0.00,LWC V2.10 B1813,2013-09-11 18:47:00,
2013-09-11 13:52:00,91.6,64.5,29.24,East,88,5.8,5.8,41,0.00,,,0.00,LWC V2.10 B1813,2013-09-11 18:52:00,
2013-09-11 13:58:00,92.3,65.1,29.24,East,90,5.8,7.6,41,0.00,,,0.00,LWC V2.10 B1813,2013-09-11 18:58:00,
2013-09-11 14:03:00,91.4,62.9,29.24,East,101,3.6,10.1,39,0.00,,,0.00,LWC V2.10 B1813,2013-09-11 19:03:00,
2013-09-11 14:08:00,91.4,63.6,29.24,East,100,5.4,7.6,40,0.00,,,0.00,LWC V2.10 B1813,2013-09-11 19:08:00,
2013-09-11 14:13:00,92.1,64.3,29.24,NE,45,3.1,7.2,40,0.00,,,0.00,LWC V2.10 B1813,2013-09-11 19:13:00,
2013-09-11 14:18:00,91.9,64.1,29.24,NE,46,3.6,7.6,40,0.00,,,0.00,LWC V2.10 B1813,2013-09-11 19:18:00,
2013-09-11 14:23:00,91.0,64.0,29.24,ESE,102,4.5,8.7,41,0.00,,,0.00,LWC V2.10 B1813,2013-09-11 19:23:00,
2013-09-11 14:28:00,91.8,64.0,29.24,NE,37,0.0,6.3,40,0.00,,,0.00,LWC V2.10 B1813,2013-09-11 19:28:00,
2013-09-11 14:33:00,91.9,64.1,29.24,ESE,123,5.4,5.4,40,0.00,,,0.00,LWC V2.10 B1813,2013-09-11 19:33:00,
2013-09-11 14:38:00,91.8,64.0,29.24,ENE,77,5.4,5.4,40,0.00,,,0.00,LWC V2.10 B1813,2013-09-11 19:38:00,
2013-09-11 14:43:00,90.7,63.0,29.24,East,88,5.8,8.3,40,0.00,,,0.00,LWC V2.10 B1813,2013-09-11 19:43:00,
2013-09-11 14:48:00,91.6,63.1,29.24,ENE,72,3.6,5.8,39,0.00,,,0.00,LWC V2.10 B1813,2013-09-11 19:48:00,
2013-09-11 14:53:00,92.5,63.9,29.24,SE,141,4.9,5.8,39,0.00,,,0.00,LWC V2.10 B1813,2013-09-11 19:53:00,
2013-09-11 14:58:00,93.4,63.2,29.24,SW,226,8.3,8.3,37,0.00,,,0.00,LWC V2.10 B1813,2013-09-11 19:58:00,
2013-09-11 15:03:00,92.5,62.4,29.20,SE,129,3.1,5.8,37,0.00,,,0.00,LWC V2.10 B1813,2013-09-11 20:03:00,
2013-09-11 15:08:00,93.4,63.2,29.20,ENE,68,6.7,6.7,37,0.00,,,0.00,LWC V2.10 B1813,2013-09-11 20:08:00,
2013-09-11 15:13:00,93.6,64.1,29.20,NNE,33,8.1,8.1,38,0.00,,,0.00,LWC V2.10 B1813,2013-09-11 20:13:00,
2013-09-11 15:18:00,93.4,63.2,29.20,ESE,108,3.1,10.1,37,0.00,,,0.00,LWC V2.10 B1813,2013-09-11 20:18:00,
2013-09-11 15:23:00,93.7,64.2,29.20,NE,41,3.6,8.1,38,0.00,,,0.00,LWC V2.10 B1813,2013-09-11 20:23:00,
2013-09-11 15:28:00,93.2,63.8,29.20,ENE,61,4.9,8.3,38,0.00,,,0.00,LWC V2.10 B1813,2013-09-11 20:28:00,
2013-09-11 15:33:00,91.4,62.9,29.20,East,94,2.2,3.6,39,0.00,,,0.00,LWC V2.10 B1813,2013-09-11 20:33:00,
2013-09-11 15:38:00,91.8,63.2,29.20,ESE,123,5.8,6.3,39,0.00,,,0.00,LWC V2.10 B1813,2013-09-11 20:38:00,
2013-09-11 15:43:00,92.7,63.3,29.20,ENE,77,3.6,4.9,38,0.00,,,0.00,LWC V2.10 B1813,2013-09-11 20:43:00,
2013-09-11 15:48:00,92.5,62.4,29.20,SSE,147,2.7,7.6,37,0.00,,,0.00,LWC V2.10 B1813,2013-09-11 20:48:00,
2013-09-11 15:53:00,91.9,61.9,29.20,SSE,152,8.1,10.5,37,0.00,,,0.00,LWC V2.10 B1813,2013-09-11 20:53:00,
2013-09-11 15:58:00,91.9,61.9,29.20,East,82,6.3,10.1,37,0.00,,,0.00,LWC V2.10 B1813,2013-09-11 20:58:00,
2013-09-11 16:03:00,92.5,63.1,29.18,NE,45,0.0,4.0,38,0.00,,,0.00,LWC V2.10 B1813,2013-09-11 21:03:00,
2013-09-11 16:08:00,93.0,62.8,29.18,East,96,3.1,8.1,37,0.00,,,0.00,LWC V2.10 B1813,2013-09-11 21:08:00,
2013-09-11 16:13:00,92.8,63.4,29.18,SE,134,2.7,8.7,38,0.00,,,0.00,LWC V2.10 B1813,2013-09-11 21:13:00,
2013-09-11 16:18:00,93.6,63.3,29.18,South,184,0.0,5.4,37,0.00,,,0.00,LWC V2.10 B1813,2013-09-11 21:18:00,
2013-09-11 16:23:00,93.7,61.9,29.18,SSE,161,6.3,8.1,35,0.00,,,0.00,LWC V2.10 B1813,2013-09-11 21:23:00,
2013-09-11 16:28:00,93.7,62.7,29.18,SE,129,7.6,8.3,36,0.00,,,0.00,LWC V2.10 B1813,2013-09-11 21:28:00,
2013-09-11 16:33:00,93.7,61.9,29.20,ESE,102,6.3,6.3,35,0.00,,,0.00,LWC V2.10 B1813,2013-09-11 21:33:00,
2013-09-11 16:38:00,93.9,61.2,29.20,SE,139,2.7,5.8,34,0.00,,,0.00,LWC V2.10 B1813,2013-09-11 21:38:00,
2013-09-11 16:43:00,93.4,61.6,29.20,ESE,121,7.2,7.2,35,0.00,,,0.00,LWC V2.10 B1813,2013-09-11 21:43:00,
2013-09-11 16:48:00,93.2,60.6,29.18,SSE,163,5.4,8.1,34,0.00,,,0.00,LWC V2.10 B1813,2013-09-11 21:48:00,
2013-09-11 16:53:00,93.0,60.4,29.18,SE,143,8.1,8.1,34,0.00,,,0.00,LWC V2.10 B1813,2013-09-11 21:53:00,
2013-09-11 16:58:00,93.4,59.9,29.18,ENE,71,2.2,8.1,33,0.00,,,0.00,LWC V2.10 B1813,2013-09-11 21:58:00,
2013-09-11 17:03:00,93.9,59.5,29.18,North,353,3.1,8.7,32,0.00,,,0.00,LWC V2.10 B1813,2013-09-11 22:03:00,
2013-09-11 17:08:00,93.4,59.9,29.18,SW,214,8.1,10.1,33,0.00,,,0.00,LWC V2.10 B1813,2013-09-11 22:08:00,
2013-09-11 17:13:00,93.2,58.9,29.18,SE,146,5.4,8.1,32,0.00,,,0.00,LWC V2.10 B1813,2013-09-11 22:13:00,
2013-09-11 17:18:00,93.0,59.6,29.18,South,174,5.8,5.8,33,0.00,,,0.00,LWC V2.10 B1813,2013-09-11 22:18:00,
2013-09-11 17:23:00,93.2,59.8,29.18,East,85,5.4,8.1,33,0.00,,,0.00,LWC V2.10 B1813,2013-09-11 22:23:00,
2013-09-11 17:28:00,93.6,60.1,29.18,NE,53,4.9,6.3,33,0.00,,,0.00,LWC V2.10 B1813,2013-09-11 22:28:00,
2013-09-11 17:33:00,93.0,59.6,29.18,SE,124,3.1,9.2,33,0.00,,,0.00,LWC V2.10 B1813,2013-09-11 22:33:00,
2013-09-11 17:38:00,92.8,60.3,29.18,ENE,65,6.3,6.3,34,0.00,,,0.00,LWC V2.10 B1813,2013-09-11 22:38:00,
2013-09-11 17:43:00,92.8,60.3,29.18,ESE,119,3.1,5.4,34,0.00,,,0.00,LWC V2.10 B1813,2013-09-11 22:43:00,
2013-09-11 17:48:00,92.7,60.1,29.18,SSE,153,5.8,6.7,34,0.00,,,0.00,LWC V2.10 B1813,2013-09-11 22:48:00,
2013-09-11 17:53:00,92.7,60.1,29.18,East,86,3.6,6.3,34,0.00,,,0.00,LWC V2.10 B1813,2013-09-11 22:53:00,
2013-09-11 17:58:00,92.5,60.0,29.18,South,179,3.6,3.6,34,0.00,,,0.00,LWC V2.10 B1813,2013-09-11 22:58:00,
2013-09-11 18:03:00,91.9,59.5,29.18,SSE,164,5.8,8.3,34,0.00,,,0.00,LWC V2.10 B1813,2013-09-11 23:03:00,
2013-09-11 18:08:00,92.3,59.8,29.18,SSE,157,6.3,6.3,34,0.00,,,0.00,LWC V2.10 B1813,2013-09-11 23:08:00,
2013-09-11 18:13:00,91.8,58.5,29.18,South,186,9.6,9.6,33,0.00,,,0.00,LWC V2.10 B1813,2013-09-11 23:13:00,
2013-09-11 18:18:00,91.8,59.3,29.18,East,93,5.4,6.3,34,0.00,,,0.00,LWC V2.10 B1813,2013-09-11 23:18:00,
2013-09-11 18:23:00,91.8,59.3,29.18,SE,124,4.0,5.8,34,0.00,,,0.00,LWC V2.10 B1813,2013-09-11 23:23:00,
2013-09-11 18:28:00,91.8,59.3,29.18,ESE,105,5.8,5.8,34,0.00,,,0.00,LWC V2.10 B1813,2013-09-11 23:28:00,
2013-09-11 18:33:00,91.6,59.2,29.18,ESE,121,3.6,8.1,34,0.00,,,0.00,LWC V2.10 B1813,2013-09-11 23:33:00,
2013-09-11 18:38:00,91.4,58.2,29.18,ENE,75,3.1,8.1,33,0.00,,,0.00,LWC V2.10 B1813,2013-09-11 23:38:00,
2013-09-11 18:43:00,91.4,58.2,29.18,South,183,5.8,5.8,33,0.00,,,0.00,LWC V2.10 B1813,2013-09-11 23:43:00,
2013-09-11 18:48:00,91.2,58.0,29.18,ESE,107,2.7,5.8,33,0.00,,,0.00,LWC V2.10 B1813,2013-09-11 23:48:00,
2013-09-11 18:53:00,91.0,58.7,29.18,East,90,3.6,5.8,34,0.00,,,0.00,LWC V2.10 B1813,2013-09-11 23:53:00,
2013-09-11 18:58:00,90.9,57.7,29.18,ESE,123,2.7,7.6,33,0.00,,,0.00,LWC V2.10 B1813,2013-09-11 23:58:00,
2013-09-11 19:03:00,90.9,58.6,29.18,ESE,115,3.6,6.3,34,0.00,,,0.00,LWC V2.10 B1813,2013-09-12 00:03:00,
2013-09-11 19:08:00,90.5,57.4,29.18,SSE,164,4.9,6.3,33,0.00,,,0.00,LWC V2.10 B1813,2013-09-12 00:08:00,
2013-09-11 19:13:00,90.1,57.1,29.18,South,183,2.2,5.8,33,0.00,,,0.00,LWC V2.10 B1813,2013-09-12 00:13:00,
2013-09-11 19:18:00,90.0,57.8,29.18,SE,144,3.6,6.7,34,0.00,,,0.00,LWC V2.10 B1813,2013-09-12 00:18:00,
2013-09-11 19:23:00,89.8,57.6,29.18,SSE,155,4.0,4.0,34,0.00,,,0.00,LWC V2.10 B1813,2013-09-12 00:23:00,
2013-09-11 19:28:00,89.4,58.1,29.18,ESE,116,0.0,4.0,35,0.00,,,0.00,LWC V2.10 B1813,2013-09-12 00:28:00,
2013-09-11 19:33:00,89.1,57.8,29.18,East,89,3.6,3.6,35,0.00,,,0.00,LWC V2.10 B1813,2013-09-12 00:33:00,
2013-09-11 19:38:00,88.7,57.5,29.18,East,100,3.6,3.6,35,0.00,,,0.00,LWC V2.10 B1813,2013-09-12 00:38:00,
2013-09-11 19:43:00,88.3,57.2,29.18,SE,143,4.0,5.4,35,0.00,,,0.00,LWC V2.10 B1813,2013-09-12 00:43:00,
2013-09-11 19:48:00,88.0,57.6,29.18,ESE,112,3.6,3.6,36,0.00,,,0.00,LWC V2.10 B1813,2013-09-12 00:48:00,
2013-09-11 19:53:00,87.6,57.3,29.18,ESE,111,3.6,4.0,36,0.00,,,0.00,LWC V2.10 B1813,2013-09-12 00:53:00,
2013-09-11 19:58:00,87.4,57.9,29.18,East,98,3.1,3.1,37,0.00,,,0.00,LWC V2.10 B1813,2013-09-12 00:58:00,
2013-09-11 20:03:00,87.1,57.6,29.18,ESE,113,3.1,4.0,37,0.00,,,0.00,LWC V2.10 B1813,2013-09-12 01:03:00,
2013-09-11 20:08:00,86.9,57.5,29.18,ESE,118,2.2,3.6,37,0.00,,,0.00,LWC V2.10 B1813,2013-09-12 01:08:00,
2013-09-11 20:13:00,86.7,58.0,29.18,ESE,122,2.7,4.0,38,0.00,,,0.00,LWC V2.10 B1813,2013-09-12 01:13:00,
2013-09-11 20:18:00,86.7,58.0,29.18,SSE,149,3.1,5.4,38,0.00,,,0.00,LWC V2.10 B1813,2013-09-12 01:18:00,
2013-09-11 20:23:00,86.5,57.9,29.18,SSE,149,3.6,6.3,38,0.00,,,0.00,LWC V2.10 B1813,2013-09-12 01:23:00,
2013-09-11 20:28:00,86.5,57.9,29.18,SE,125,5.8,8.1,38,0.00,,,0.00,LWC V2.10 B1813,2013-09-12 01:28:00,
2013-09-11 20:33:00,86.2,59.0,29.18,ENE,74,6.3,6.3,40,0.00,,,0.00,LWC V2.10 B1813,2013-09-12 01:33:00,
2013-09-11 20:38:00,85.5,60.4,29.18,ESE,123,8.1,10.5,43,0.00,,,0.00,LWC V2.10 B1813,2013-09-12 01:38:00,
2013-09-11 20:43:00,84.9,61.8,29.18,East,89,3.1,5.4,46,0.00,,,0.00,LWC V2.10 B1813,2013-09-12 01:43:00,
2013-09-11 20:48:00,84.6,62.7,29.18,ESE,108,7.2,7.6,48,0.00,,,0.00,LWC V2.10 B1813,2013-09-12 01:48:00,
2013-09-11 20:53:00,84.4,63.1,29.18,East,96,5.4,9.2,49,0.00,,,0.00,LWC V2.10 B1813,2013-09-12 01:53:00,
2013-09-11 20:58:00,84.2,63.5,29.18,SE,124,4.0,8.3,50,0.00,,,0.00,LWC V2.10 B1813,2013-09-12 01:58:00,
2013-09-11 21:03:00,84.0,63.9,29.20,SSE,149,5.4,6.3,51,0.00,,,0.00,LWC V2.10 B1813,2013-09-12 02:03:00,
2013-09-11 21:08:00,83.8,63.7,29.20,SSE,157,5.8,5.8,51,0.00,,,0.00,LWC V2.10 B1813,2013-09-12 02:08:00,
2013-09-11 21:13:00,83.8,64.3,29.20,East,101,4.9,7.6,52,0.00,,,0.00,LWC V2.10 B1813,2013-09-12 02:13:00,
2013-09-11 21:18:00,83.7,64.1,29.20,SE,126,5.8,8.1,52,0.00,,,0.00,LWC V2.10 B1813,2013-09-12 02:18:00,
2013-09-11 21:23:00,83.7,64.1,29.20,SE,124,6.3,6.3,52,0.00,,,0.00,LWC V2.10 B1813,2013-09-12 02:23:00,
2013-09-11 21:28:00,83.5,64.5,29.20,SSE,149,5.8,5.8,53,0.00,,,0.00,LWC V2.10 B1813,2013-09-12 02:28:00,
2013-09-11 21:33:00,83.3,64.4,29.20,East,100,2.7,6.3,53,0.00,,,0.00,LWC V2.10 B1813,2013-09-12 02:33:00,
2013-09-11 21:38:00,83.1,64.2,29.20,ESE,106,2.7,6.3,53,0.00,,,0.00,LWC V2.10 B1813,2013-09-12 02:38:00,
2013-09-11 21:43:00,83.1,64.7,29.20,ESE,104,5.4,5.4,54,0.00,,,0.00,LWC V2.10 B1813,2013-09-12 02:43:00,
2013-09-11 21:49:00,82.9,64.6,29.20,SE,145,4.0,5.4,54,0.00,,,0.00,LWC V2.10 B1813,2013-09-12 02:49:00,
2013-09-11 21:54:00,82.8,64.9,29.20,ESE,111,2.2,3.6,55,0.00,,,0.00,LWC V2.10 B1813,2013-09-12 02:54:00,
2013-09-11 21:59:00,82.6,64.7,29.20,ESE,121,3.1,4.9,55,0.00,,,0.00,LWC V2.10 B1813,2013-09-12 02:59:00,
2013-09-11 22:04:00,82.4,64.6,29.20,SE,125,2.7,3.6,55,0.00,,,0.00,LWC V2.10 B1813,2013-09-12 03:04:00,
2013-09-11 22:09:00,82.2,64.9,29.20,SSE,150,2.7,3.6,56,0.00,,,0.00,LWC V2.10 B1813,2013-09-12 03:09:00,
2013-09-11 22:14:00,82.2,65.4,29.20,South,174,2.7,4.9,57,0.00,,,0.00,LWC V2.10 B1813,2013-09-12 03:14:00,
2013-09-11 22:19:00,82.0,65.3,29.20,South,179,3.1,4.0,57,0.00,,,0.00,LWC V2.10 B1813,2013-09-12 03:19:00,
2013-09-11 22:24:00,82.0,65.8,29.20,SE,145,3.1,5.8,58,0.00,,,0.00,LWC V2.10 B1813,2013-09-12 03:24:00,
2013-09-11 22:29:00,81.9,66.1,29.20,East,86,5.8,5.8,59,0.00,,,0.00,LWC V2.10 B1813,2013-09-12 03:29:00,
2013-09-11 22:34:00,81.7,65.9,29.20,SE,124,2.7,4.0,59,0.00,,,0.00,LWC V2.10 B1813,2013-09-12 03:34:00,
2013-09-11 22:39:00,81.5,66.2,29.20,SE,126,0.0,4.9,60,0.00,,,0.00,LWC V2.10 B1813,2013-09-12 03:39:00,
2013-09-11 22:44:00,81.3,66.1,29.20,ESE,104,4.0,4.9,60,0.00,,,0.00,LWC V2.10 B1813,2013-09-12 03:44:00,
2013-09-11 22:49:00,81.3,66.1,29.20,SSE,151,4.0,5.8,60,0.00,,,0.00,LWC V2.10 B1813,2013-09-12 03:49:00,
2013-09-11 22:54:00,81.1,66.4,29.20,SE,124,5.4,8.3,61,0.00,,,0.00,LWC V2.10 B1813,2013-09-12 03:54:00,
2013-09-11 22:59:00,81.0,66.2,29.20,ESE,120,5.8,6.3,61,0.00,,,0.00,LWC V2.10 B1813,2013-09-12 03:59:00,
2013-09-11 23:01:00,81.0,66.2,29.20,SSE,155,2.7,4.0,61,0.00,,,0.00,LWC V2.10 B1813,2013-09-12 04:01:00,
2013-09-11 23:06:00,80.8,66.1,29.20,SSE,157,4.0,4.0,61,0.00,,,0.00,LWC V2.10 B1813,2013-09-12 04:06:00,
2013-09-11 23:11:00,80.6,65.9,29.20,SSE,160,8.1,8.1,61,0.00,,,0.00,LWC V2.10 B1813,2013-09-12 04:11:00,
2013-09-11 23:16:00,80.6,65.9,29.20,South,170,3.1,3.6,61,0.00,,,0.00,LWC V2.10 B1813,2013-09-12 04:16:00,
2013-09-11 23:22:00,80.2,66.0,29.24,SSE,147,0.0,6.3,62,0.00,,,0.00,LWC V2.10 B1813,2013-09-12 04:22:00,
2013-09-11 23:27:00,80.2,66.5,29.24,SE,124,3.6,4.0,63,0.00,,,0.00,LWC V2.10 B1813,2013-09-12 04:27:00,
2013-09-11 23:32:00,80.1,66.3,29.24,SSE,149,3.1,3.6,63,0.00,,,0.00,LWC V2.10 B1813,2013-09-12 04:32:00,
2013-09-11 23:37:00,80.1,66.3,29.20,SSE,153,3.6,5.8,63,0.00,,,0.00,LWC V2.10 B1813,2013-09-12 04:37:00,
2013-09-11 23:42:00,80.1,66.8,29.20,SE,143,8.1,8.1,64,0.00,,,0.00,LWC V2.10 B1813,2013-09-12 04:42:00,
2013-09-11 23:47:00,79.9,66.6,29.20,SSE,162,5.4,6.3,64,0.00,,,0.00,LWC V2.10 B1813,2013-09-12 04:47:00,
2013-09-11 23:52:00,79.7,66.4,29.20,South,175,4.9,6.3,64,0.00,,,0.00,LWC V2.10 B1813,2013-09-12 04:52:00,
2013-09-11 23:57:00,79.5,66.2,29.20,SSE,157,4.9,4.9,64,0.00,,,0.00,LWC V2.10 B1813,2013-09-12 04:57:00,